Regional Weather Roundup
Issued by NWS

Home | Current Version | Previous Version | Graphics & Text | Print | Product List | Glossary Off
Versions: 1 2 3 4 5 6 7 8 9 10 11 12 13 14 15 16 17 18 19 20 21 22 23 24 25 26 27 28 29 30 31 32 33 34 35 36 37 38 39 40 41 42 43 44 45 46 47 48 49 50

000
ASUS43 KFSD 041210
RWRSD

WEATHER ROUNDUP FOR SOUTH DAKOTA
NATIONAL WEATHER SERVICE SIOUX FALLS SD
600 AM CST SUN DEC 04 2016

NOTE: "FAIR" INDICATES FEW OR NO CLOUDS BELOW 12,000 FEET WITH NO
SIGNIFICANT WEATHER AND/OR OBSTRUCTIONS TO VISIBILITY.


SDZ001>005-009-010-012>017-041300-
NORTHWEST AND NORTH CENTRAL SOUTH DAKOTA

CITY           SKY/WX    TMP DP  RH WIND       PRES   REMARKS
BUFFALO          N/A     26  20  77 W13       29.76S WCI  15
FAITH            N/A     29  24  82 W15       29.83F WCI  18
MOBRIDGE       CLEAR     27  22  81 W7        29.79S WCI  19
$$

SDZ012>016-024>037-041>051-057-063-072>074-041300-
SOUTHWEST AND SOUTH CENTRAL SOUTH DAKOTA

CITY           SKY/WX    TMP DP  RH WIND       PRES   REMARKS
RAPID CTY ARPT CLEAR     25  18  74 NW10      29.89S WCI  15
PIERRE         MOCLDY    31  24  75 W12       29.86S WCI  22
CUSTER         CLEAR     21  14  74 W6        29.86S WCI  13
ELLSWORTH AFB  MOCLDY    26  19  77 W8        29.87F WCI  17
PHILIP         CLEAR     25  21  85 W6        29.89F WCI  18
PINE RIDGE     CLOUDY    30  18  60 W8        29.93F WCI  22
SPEARFISH      CLOUDY    32  19  59 W9        29.88F WCI  24
WINNER         FAIR      34  25  69 W8        29.89S WCI  27
$$

SDZ004>011-016>023-039-040-041300-
NORTHEAST SOUTH DAKOTA

CITY           SKY/WX    TMP DP  RH WIND       PRES   REMARKS
ABERDEEN       CLOUDY    31  28  89 SW6       29.80S WCI  25
WATERTOWN      CLOUDY    31  29  92 S13       29.79F WCI  21
BROOKINGS      CLOUDY    32  30  92 SW14      29.84S WCI  22
SISSETON         N/A     34  30  85 S9        29.78F WCI  27
$$

SDZ017-020-022-023-036>040-048>070-041300-
SOUTHEAST SOUTH DAKOTA

CITY           SKY/WX    TMP DP  RH WIND       PRES   REMARKS
SIOUX FALLS    CLOUDY    33  32  96 SW10      29.88S WCI  25
HURON          CLEAR     27  24  89 SW8       29.84F WCI  19
CHAMBERLAIN    CLEAR     31  26  83 W7        29.88S WCI  24
MITCHELL       CLEAR     31  25  78 W10       29.88F WCI  22
YANKTON          N/A     27  25  93 CALM      29.90S VSB 1/2
$$

ABBREVIATIONS USED IN REMARKS
   TC - TEMPERATURE IN CELSIUS
  WCI - WIND CHILL INDEX
   HX - HEAT INDEX
  VSB - VISIBILITY





USA.gov is the U.S. government's official web portal to all federal, state and local government web resources and services.